M I D A S
Marine Information and Data Acquisition System
Tripno 1246 of the Zeeleeuw from 2007-04-17 08:41:57 to 2007-04-17 12:48:01
Back to CruiseResearch ActivitiesStationsMapUnderway DataData graphs

EquipmentUnitsComments
TimeDGPSUTC
LatitudeDGPSDM.mWGS84
LongitudeDGPSDM.mWGS84
SpeedMeteo Stationm/sRelative wind speed
DirectionMeteo StationdegRelative wind direction
TemperatureMeteo Stationdeg CelciusAir temperature
PressureMeteo StationPaAtmospheric pressure
HumidityMeteo Station%Relative humidity
Missing or incorrect values are displayed as -999
Metereological data collected by the RV Zeeleeuw from 2007-04-17 08:44:07 to 2007-04-17 13:00:31
                                                                                    Next 1000 lines
Time Latitude Longitude Speed Direction Temperature Pressure Humidity
2007-04-17 08:44:16 51°13.601 2°56.099 -999 -999 -999 -999 -999
2007-04-17 08:44:22 51°13.601 2°56.098 -999 -999 -999 -999 -999
2007-04-17 08:44:27 51°13.602 2°56.096 -999 -999 -999 -999 -999
2007-04-17 08:44:32 51°13.602 2°56.094 -999 -999 -999 -999 -999
2007-04-17 08:44:37 51°13.603 2°56.091 -999 -999 -999 -999 -999
2007-04-17 08:44:41 51°13.603 2°56.088 -999 -999 -999 -999 -999
2007-04-17 08:44:47 51°13.605 2°56.084 -999 -999 -999 -999 -999
2007-04-17 08:44:52 51°13.606 2°56.079 -999 -999 -999 -999 -999
2007-04-17 08:44:57 51°13.607 2°56.074 -999 -999 -999 -999 -999
2007-04-17 08:45:01 51°13.608 2°56.07 -999 -999 -999 -999 -999
2007-04-17 08:45:07 51°13.611 2°56.062 -999 -999 -999 -999 -999
2007-04-17 08:45:12 51°13.613 2°56.055 -999 -999 -999 -999 -999
2007-04-17 08:45:17 51°13.614 2°56.049 -999 -999 -999 -999 -999
2007-04-17 08:45:21 51°13.616 2°56.043 -999 -999 -999 -999 -999
2007-04-17 08:45:26 51°13.618 2°56.036 -999 -999 -999 -999 -999
2007-04-17 08:45:32 51°13.62 2°56.028 -999 -999 -999 -999 -999
2007-04-17 08:45:37 51°13.622 2°56.021 -999 -999 -999 -999 -999
2007-04-17 08:45:42 51°13.625 2°56.013 -999 -999 -999 -999 -999
2007-04-17 08:45:47 51°13.626 2°56.006 -999 -999 -999 -999 -999
2007-04-17 08:45:51 51°13.628 2°56 -999 -999 -999 -999 -999
2007-04-17 08:45:57 51°13.631 2°55.991 -999 -999 -999 -999 -999
2007-04-17 08:46:02 51°13.633 2°55.984 -999 -999 -999 -999 -999
2007-04-17 08:46:07 51°13.635 2°55.977 -999 -999 -999 -999 -999
2007-04-17 08:46:12 51°13.638 2°55.97 -999 -999 -999 -999 -999
2007-04-17 08:46:17 51°13.64 2°55.962 -999 -999 -999 -999 -999
2007-04-17 08:46:22 51°13.642 2°55.955 -999 -999 -999 -999 -999
2007-04-17 08:46:27 51°13.644 2°55.948 -999 -999 -999 -999 -999
2007-04-17 08:46:32 51°13.647 2°55.941 -999 -999 -999 -999 -999
2007-04-17 08:46:36 51°13.649 2°55.934 -999 -999 -999 -999 -999
2007-04-17 08:46:42 51°13.652 2°55.925 -999 -999 -999 -999 -999
2007-04-17 08:46:47 51°13.655 2°55.917 -999 -999 -999 -999 -999
2007-04-17 08:46:52 51°13.658 2°55.909 -999 -999 -999 -999 -999
2007-04-17 08:46:57 51°13.66 2°55.902 -999 -999 -999 -999 -999
2007-04-17 08:47:01 51°13.662 2°55.896 -999 -999 -999 -999 -999
2007-04-17 08:47:07 51°13.665 2°55.887 -999 -999 -999 -999 -999
2007-04-17 08:47:12 51°13.668 2°55.88 -999 -999 -999 -999 -999
2007-04-17 08:47:17 51°13.67 2°55.873 -999 -999 -999 -999 -999
2007-04-17 08:47:22 51°13.672 2°55.866 -999 -999 -999 -999 -999
2007-04-17 08:47:26 51°13.674 2°55.86 -999 -999 -999 -999 -999
2007-04-17 08:47:32 51°13.677 2°55.851 -999 -999 -999 -999 -999
2007-04-17 08:47:37 51°13.679 2°55.844 -999 -999 -999 -999 -999
2007-04-17 08:47:41 51°13.68 2°55.839 -999 -999 -999 -999 -999
2007-04-17 08:47:46 51°13.682 2°55.832 -999 -999 -999 -999 -999
2007-04-17 08:47:52 51°13.684 2°55.824 -999 -999 -999 -999 -999
2007-04-17 08:47:57 51°13.686 2°55.818 -999 -999 -999 -999 -999
2007-04-17 08:48:01 51°13.688 2°55.813 -999 -999 -999 -999 -999
2007-04-17 08:48:06 51°13.689 2°55.806 -999 -999 -999 -999 -999
2007-04-17 08:48:11 51°13.691 2°55.8 -999 -999 -999 -999 -999
2007-04-17 08:48:17 51°13.693 2°55.793 -999 -999 -999 -999 -999
2007-04-17 08:48:21 51°13.694 2°55.789 -999 -999 -999 -999 -999
2007-04-17 08:48:26 51°13.696 2°55.783 -999 -999 -999 -999 -999
2007-04-17 08:48:31 51°13.697 2°55.777 -999 -999 -999 -999 -999
2007-04-17 08:48:37 51°13.699 2°55.771 -999 -999 -999 -999 -999
2007-04-17 08:48:42 51°13.7 2°55.765 -999 -999 -999 -999 -999
2007-04-17 08:48:46 51°13.701 2°55.761 -999 -999 -999 -999 -999
2007-04-17 08:48:51 51°13.703 2°55.756 -999 -999 -999 -999 -999
2007-04-17 08:48:56 51°13.704 2°55.751 -999 -999 -999 -999 -999
2007-04-17 08:49:02 51°13.705 2°55.746 -999 -999 -999 -999 -999
2007-04-17 08:49:07 51°13.706 2°55.743 -999 -999 -999 -999 -999
2007-04-17 08:49:11 51°13.706 2°55.742 -999 -999 -999 -999 -999
2007-04-17 08:49:16 51°13.706 2°55.74 -999 -999 -999 -999 -999
2007-04-17 08:49:21 51°13.707 2°55.74 -999 -999 -999 -999 -999
2007-04-17 08:49:26 51°13.707 2°55.74 -999 -999 -999 -999 -999
2007-04-17 08:49:31 51°13.707 2°55.741 -999 -999 -999 -999 -999
2007-04-17 08:49:37 51°13.707 2°55.743 -999 -999 -999 -999 -999
2007-04-17 08:49:41 51°13.707 2°55.744 -999 -999 -999 -999 -999
2007-04-17 08:49:46 51°13.707 2°55.745 -999 -999 -999 -999 -999
2007-04-17 08:49:51 51°13.707 2°55.746 -999 -999 -999 -999 -999
2007-04-17 08:49:56 51°13.707 2°55.747 -999 -999 -999 -999 -999
2007-04-17 08:50:01 51°13.706 2°55.746 -999 -999 -999 -999 -999
2007-04-17 08:50:06 51°13.706 2°55.745 -999 -999 -999 -999 -999
2007-04-17 08:50:11 51°13.706 2°55.743 -999 -999 -999 -999 -999
2007-04-17 08:50:17 51°13.705 2°55.739 -999 -999 -999 -999 -999
2007-04-17 08:50:21 51°13.704 2°55.737 -999 -999 -999 -999 -999
2007-04-17 08:50:26 51°13.704 2°55.735 -999 -999 -999 -999 -999
2007-04-17 08:50:32 51°13.703 2°55.731 -999 -999 -999 -999 -999
2007-04-17 08:50:37 51°13.703 2°55.729 -999 -999 -999 -999 -999
2007-04-17 08:50:42 51°13.703 2°55.727 -999 -999 -999 -999 -999
2007-04-17 08:50:47 51°13.702 2°55.726 -999 -999 -999 -999 -999
2007-04-17 08:50:51 51°13.702 2°55.725 -999 -999 -999 -999 -999
2007-04-17 08:50:56 51°13.702 2°55.724 -999 -999 -999 -999 -999
2007-04-17 08:51:02 51°13.702 2°55.723 -999 -999 -999 -999 -999
2007-04-17 08:51:07 51°13.702 2°55.723 -999 -999 -999 -999 -999
2007-04-17 08:51:12 51°13.702 2°55.723 -999 -999 -999 -999 -999
2007-04-17 08:51:17 51°13.702 2°55.723 -999 -999 -999 -999 -999
2007-04-17 08:51:22 51°13.702 2°55.724 -999 -999 -999 -999 -999
2007-04-17 08:51:26 51°13.703 2°55.725 -999 -999 -999 -999 -999
2007-04-17 08:51:31 51°13.704 2°55.726 -999 -999 -999 -999 -999
2007-04-17 08:51:37 51°13.705 2°55.729 -999 -999 -999 -999 -999
2007-04-17 08:51:41 51°13.707 2°55.732 -999 -999 -999 -999 -999
2007-04-17 08:51:47 51°13.709 2°55.735 -999 -999 -999 -999 -999
2007-04-17 08:51:51 51°13.711 2°55.737 -999 -999 -999 -999 -999
2007-04-17 08:51:56 51°13.713 2°55.739 -999 -999 -999 -999 -999
2007-04-17 08:52:01 51°13.715 2°55.741 -999 -999 -999 -999 -999
2007-04-17 08:52:06 51°13.717 2°55.742 -999 -999 -999 -999 -999
2007-04-17 08:52:11 51°13.718 2°55.743 -999 -999 -999 -999 -999
2007-04-17 08:52:17 51°13.72 2°55.744 -999 -999 -999 -999 -999
2007-04-17 08:52:21 51°13.72 2°55.744 -999 -999 -999 -999 -999
2007-04-17 08:52:26 51°13.72 2°55.745 -999 -999 -999 -999 -999
2007-04-17 08:52:32 51°13.72 2°55.745 -999 -999 -999 -999 -999
2007-04-17 08:52:37 51°13.718 2°55.745 -999 -999 -999 -999 -999
2007-04-17 08:52:41 51°13.717 2°55.745 -999 -999 -999 -999 -999
2007-04-17 08:52:46 51°13.715 2°55.744 -999 -999 -999 -999 -999
2007-04-17 08:52:51 51°13.713 2°55.744 -999 -999 -999 -999 -999
2007-04-17 08:52:57 51°13.711 2°55.744 -999 -999 -999 -999 -999
2007-04-17 08:53:02 51°13.709 2°55.743 -999 -999 -999 -999 -999
2007-04-17 08:53:07 51°13.708 2°55.743 -999 -999 -999 -999 -999
2007-04-17 08:53:12 51°13.707 2°55.743 -999 -999 -999 -999 -999
2007-04-17 08:53:16 51°13.707 2°55.743 -999 -999 -999 -999 -999
2007-04-17 08:53:22 51°13.708 2°55.743 -999 -999 -999 -999 -999
2007-04-17 08:53:27 51°13.71 2°55.742 -999 -999 -999 -999 -999
2007-04-17 08:53:32 51°13.711 2°55.742 -999 -999 -999 -999 -999
2007-04-17 08:53:36 51°13.712 2°55.741 -999 -999 -999 -999 -999
2007-04-17 08:53:42 51°13.715 2°55.739 -999 -999 -999 -999 -999
2007-04-17 08:53:46 51°13.717 2°55.737 -999 -999 -999 -999 -999
2007-04-17 08:53:52 51°13.721 2°55.734 -999 -999 -999 -999 -999
2007-04-17 08:53:57 51°13.725 2°55.731 -999 -999 -999 -999 -999
2007-04-17 08:54:01 51°13.728 2°55.728 -999 -999 -999 -999 -999
2007-04-17 08:54:06 51°13.732 2°55.723 -999 -999 -999 -999 -999
2007-04-17 08:54:11 51°13.738 2°55.719 -999 -999 -999 -999 -999
2007-04-17 08:54:17 51°13.744 2°55.712 -999 -999 -999 -999 -999
2007-04-17 08:54:21 51°13.749 2°55.707 -999 -999 -999 -999 -999
2007-04-17 08:54:26 51°13.756 2°55.701 -999 -999 -999 -999 -999
2007-04-17 08:54:31 51°13.762 2°55.694 -999 -999 -999 -999 -999
2007-04-17 08:54:37 51°13.771 2°55.686 -999 -999 -999 -999 -999
2007-04-17 08:54:41 51°13.778 2°55.68 -999 -999 -999 -999 -999
2007-04-17 08:54:46 51°13.786 2°55.673 -999 -999 -999 -999 -999
2007-04-17 08:54:51 51°13.795 2°55.666 -999 -999 -999 -999 -999
2007-04-17 08:54:57 51°13.806 2°55.658 -999 -999 -999 -999 -999
2007-04-17 08:55:02 51°13.815 2°55.651 -999 -999 -999 -999 -999
2007-04-17 08:55:06 51°13.822 2°55.645 -999 -999 -999 -999 -999
2007-04-17 08:55:11 51°13.831 2°55.638 -999 -999 -999 -999 -999
2007-04-17 08:55:17 51°13.842 2°55.63 -999 -999 -999 -999 -999
2007-04-17 08:55:21 51°13.85 2°55.624 -999 -999 -999 -999 -999
2007-04-17 08:55:26 51°13.859 2°55.617 -999 -999 -999 -999 -999
2007-04-17 08:55:31 51°13.868 2°55.609 -999 -999 -999 -999 -999
2007-04-17 08:55:36 51°13.878 2°55.601 -999 -999 -999 -999 -999
2007-04-17 08:55:42 51°13.89 2°55.593 -999 -999 -999 -999 -999
2007-04-17 08:55:47 51°13.899 2°55.584 -999 -999 -999 -999 -999
2007-04-17 08:55:52 51°13.909 2°55.577 -999 -999 -999 -999 -999
2007-04-17 08:55:56 51°13.917 2°55.571 -999 -999 -999 -999 -999
2007-04-17 08:56:01 51°13.927 2°55.563 -999 -999 -999 -999 -999
2007-04-17 08:56:06 51°13.938 2°55.556 -999 -999 -999 -999 -999
2007-04-17 08:56:11 51°13.949 2°55.548 -999 -999 -999 -999 -999
2007-04-17 08:56:17 51°13.961 2°55.538 -999 -999 -999 -999 -999
2007-04-17 08:56:21 51°13.97 2°55.531 -999 -999 -999 -999 -999
2007-04-17 08:56:27 51°13.983 2°55.523 -999 -999 -999 -999 -999
2007-04-17 08:56:32 51°13.994 2°55.515 -999 -999 -999 -999 -999
2007-04-17 08:56:37 51°14.004 2°55.507 -999 -999 -999 -999 -999
2007-04-17 08:56:42 51°14.015 2°55.499 -999 -999 -999 -999 -999
2007-04-17 08:56:46 51°14.024 2°55.492 -999 -999 -999 -999 -999
2007-04-17 08:56:51 51°14.034 2°55.483 -999 -999 -999 -999 -999
2007-04-17 08:56:57 51°14.047 2°55.474 -999 -999 -999 -999 -999
2007-04-17 08:57:01 51°14.056 2°55.467 -999 -999 -999 -999 -999
2007-04-17 08:57:06 51°14.067 2°55.46 -999 -999 -999 -999 -999
2007-04-17 08:57:11 51°14.078 2°55.452 -999 -999 -999 -999 -999
2007-04-17 08:57:17 51°14.091 2°55.443 -999 -999 -999 -999 -999
2007-04-17 08:57:21 51°14.1 2°55.437 -999 -999 -999 -999 -999
2007-04-17 08:57:26 51°14.11 2°55.43 -999 -999 -999 -999 -999
2007-04-17 08:57:31 51°14.121 2°55.422 -999 -999 -999 -999 -999
2007-04-17 08:57:37 51°14.134 2°55.412 -999 -999 -999 -999 -999
2007-04-17 08:57:42 51°14.144 2°55.403 -999 -999 -999 -999 -999
2007-04-17 08:57:47 51°14.155 2°55.395 -999 -999 -999 -999 -999
2007-04-17 08:57:51 51°14.164 2°55.388 -999 -999 -999 -999 -999
2007-04-17 08:57:56 51°14.174 2°55.378 -999 -999 -999 -999 -999
2007-04-17 08:58:02 51°14.185 2°55.365 -999 -999 -999 -999 -999
2007-04-17 08:58:07 51°14.195 2°55.354 -999 -999 -999 -999 -999
2007-04-17 08:58:11 51°14.202 2°55.344 -999 -999 -999 -999 -999
2007-04-17 08:58:16 51°14.212 2°55.331 -999 -999 -999 -999 -999
2007-04-17 08:58:21 51°14.221 2°55.317 -999 -999 -999 -999 -999
2007-04-17 08:58:27 51°14.232 2°55.3 -999 -999 -999 -999 -999
2007-04-17 08:58:31 51°14.239 2°55.287 -999 -999 -999 -999 -999
2007-04-17 08:58:36 51°14.249 2°55.272 -999 -999 -999 -999 -999
2007-04-17 08:58:41 51°14.258 2°55.257 -999 -999 -999 -999 -999
2007-04-17 08:58:46 51°14.268 2°55.241 -999 -999 -999 -999 -999
2007-04-17 08:58:51 51°14.277 2°55.225 -999 -999 -999 -999 -999
2007-04-17 08:58:57 51°14.289 2°55.205 -999 -999 -999 -999 -999
2007-04-17 08:59:01 51°14.296 2°55.191 -999 -999 -999 -999 -999
2007-04-17 08:59:06 51°14.305 2°55.173 -999 -999 -999 -999 -999
2007-04-17 08:59:11 51°14.315 2°55.155 -999 -999 -999 -999 -999
2007-04-17 08:59:17 51°14.327 2°55.131 -999 -999 -999 -999 -999
2007-04-17 08:59:21 51°14.334 2°55.114 -999 -999 -999 -999 -999
2007-04-17 08:59:26 51°14.344 2°55.093 -999 -999 -999 -999 -999
2007-04-17 08:59:31 51°14.354 2°55.072 -999 -999 -999 -999 -999
2007-04-17 08:59:37 51°14.366 2°55.045 -999 -999 -999 -999 -999
2007-04-17 08:59:41 51°14.373 2°55.026 -999 -999 -999 -999 -999
2007-04-17 08:59:46 51°14.38 2°55.001 -999 -999 -999 -999 -999
2007-04-17 08:59:51 51°14.388 2°54.976 -999 -999 -999 -999 -999
2007-04-17 08:59:56 51°14.395 2°54.951 -999 -999 -999 -999 -999
2007-04-17 09:00:02 51°14.404 2°54.92 -999 -999 -999 -999 -999
2007-04-17 09:00:06 51°14.41 2°54.899 -999 -999 -999 -999 -999
2007-04-17 09:00:11 51°14.419 2°54.873 -999 -999 -999 -999 -999
2007-04-17 09:00:16 51°14.427 2°54.847 -999 -999 -999 -999 -999
2007-04-17 09:00:21 51°14.435 2°54.82 -999 -999 -999 -999 -999
2007-04-17 09:00:26 51°14.443 2°54.794 -999 -999 -999 -999 -999
2007-04-17 09:00:31 51°14.451 2°54.767 -999 -999 -999 -999 -999
2007-04-17 09:00:36 51°14.46 2°54.741 -999 -999 -999 -999 -999
2007-04-17 09:00:41 51°14.467 2°54.713 -999 -999 -999 -999 -999
2007-04-17 09:00:46 51°14.475 2°54.686 -999 -999 -999 -999 -999
2007-04-17 09:00:51 51°14.483 2°54.659 -999 -999 -999 -999 -999
2007-04-17 09:00:56 51°14.491 2°54.632 -999 -999 -999 -999 -999
2007-04-17 09:01:01 51°14.498 2°54.605 -999 -999 -999 -999 -999
2007-04-17 09:01:06 51°14.505 2°54.577 -999 -999 -999 -999 -999
2007-04-17 09:01:11 51°14.511 2°54.549 -999 -999 -999 -999 -999
2007-04-17 09:01:17 51°14.519 2°54.515 -999 -999 -999 -999 -999
2007-04-17 09:01:21 51°14.524 2°54.492 -999 -999 -999 -999 -999
2007-04-17 09:01:26 51°14.53 2°54.463 -999 -999 -999 -999 -999
2007-04-17 09:01:31 51°14.535 2°54.434 -999 -999 -999 -999 -999
2007-04-17 09:01:37 51°14.542 2°54.4 -999 -999 -999 -999 -999
2007-04-17 09:01:41 51°14.547 2°54.376 -999 -999 -999 -999 -999
2007-04-17 09:01:46 51°14.553 2°54.348 -999 -999 -999 -999 -999
2007-04-17 09:01:51 51°14.559 2°54.319 -999 -999 -999 -999 -999
2007-04-17 09:01:56 51°14.565 2°54.291 -999 -999 -999 -999 -999
2007-04-17 09:02:01 51°14.571 2°54.262 -999 -999 -999 -999 -999
2007-04-17 09:02:06 51°14.578 2°54.233 -999 -999 -999 -999 -999
2007-04-17 09:02:11 51°14.583 2°54.204 -999 -999 -999 -999 -999
2007-04-17 09:02:16 51°14.589 2°54.176 -999 -999 -999 -999 -999
2007-04-17 09:02:21 51°14.594 2°54.147 -999 -999 -999 -999 -999
2007-04-17 09:02:26 51°14.6 2°54.118 -999 -999 -999 -999 -999
2007-04-17 09:02:31 51°14.604 2°54.089 -999 -999 -999 -999 -999
2007-04-17 09:02:36 51°14.608 2°54.059 -999 -999 -999 -999 -999
2007-04-17 09:02:41 51°14.611 2°54.03 -999 -999 -999 -999 -999
2007-04-17 09:02:46 51°14.615 2°54 -999 -999 -999 -999 -999
2007-04-17 09:02:51 51°14.618 2°53.97 -999 -999 -999 -999 -999
2007-04-17 09:02:56 51°14.621 2°53.941 -999 -999 -999 -999 -999
2007-04-17 09:03:01 51°14.623 2°53.911 -999 -999 -999 -999 -999
2007-04-17 09:03:06 51°14.626 2°53.881 -999 -999 -999 -999 -999
2007-04-17 09:03:11 51°14.629 2°53.851 -999 -999 -999 -999 -999
2007-04-17 09:03:16 51°14.631 2°53.821 -999 -999 -999 -999 -999
2007-04-17 09:03:21 51°14.634 2°53.791 -999 -999 -999 -999 -999
2007-04-17 09:03:26 51°14.636 2°53.762 -999 -999 -999 -999 -999
2007-04-17 09:03:31 51°14.638 2°53.732 -999 -999 -999 -999 -999
2007-04-17 09:03:36 51°14.641 2°53.702 -999 -999 -999 -999 -999
2007-04-17 09:03:41 51°14.643 2°53.672 -999 -999 -999 -999 -999
2007-04-17 09:03:46 51°14.644 2°53.643 -999 -999 -999 -999 -999
2007-04-17 09:03:51 51°14.646 2°53.613 -999 -999 -999 -999 -999
2007-04-17 09:03:56 51°14.647 2°53.584 -999 -999 -999 -999 -999
2007-04-17 09:04:01 51°14.648 2°53.554 -999 -999 -999 -999 -999
2007-04-17 09:04:06 51°14.649 2°53.525 -999 -999 -999 -999 -999
2007-04-17 09:04:11 51°14.649 2°53.494 -999 -999 -999 -999 -999
2007-04-17 09:04:16 51°14.649 2°53.464 -999 -999 -999 -999 -999
2007-04-17 09:04:21 51°14.649 2°53.434 -999 -999 -999 -999 -999
2007-04-17 09:04:26 51°14.649 2°53.404 -999 -999 -999 -999 -999
2007-04-17 09:04:31 51°14.65 2°53.374 -999 -999 -999 -999 -999
2007-04-17 09:04:36 51°14.649 2°53.344 -999 -999 -999 -999 -999
2007-04-17 09:04:41 51°14.649 2°53.313 -999 -999 -999 -999 -999
2007-04-17 09:04:46 51°14.65 2°53.283 -999 -999 -999 -999 -999
2007-04-17 09:04:51 51°14.65 2°53.253 -999 -999 -999 -999 -999
2007-04-17 09:04:56 51°14.65 2°53.223 -999 -999 -999 -999 -999
2007-04-17 09:05:01 51°14.65 2°53.193 -999 -999 -999 -999 -999
2007-04-17 09:05:06 51°14.65 2°53.162 -999 -999 -999 -999 -999
2007-04-17 09:05:11 51°14.65 2°53.131 -999 -999 -999 -999 -999
2007-04-17 09:05:16 51°14.65 2°53.101 -999 -999 -999 -999 -999
2007-04-17 09:05:21 51°14.65 2°53.07 -999 -999 -999 -999 -999
2007-04-17 09:05:26 51°14.65 2°53.04 -999 -999 -999 -999 -999
2007-04-17 09:05:31 51°14.651 2°53.01 -999 -999 -999 -999 -999
2007-04-17 09:05:36 51°14.651 2°52.979 -999 -999 -999 -999 -999
2007-04-17 09:05:41 51°14.651 2°52.949 -999 -999 -999 -999 -999
2007-04-17 09:05:46 51°14.652 2°52.918 -999 -999 -999 -999 -999
2007-04-17 09:05:51 51°14.652 2°52.887 -999 -999 -999 -999 -999
2007-04-17 09:05:56 51°14.652 2°52.857 -999 -999 -999 -999 -999
2007-04-17 09:06:01 51°14.652 2°52.826 -999 -999 -999 -999 -999
2007-04-17 09:06:06 51°14.652 2°52.796 -999 -999 -999 -999 -999
2007-04-17 09:06:11 51°14.652 2°52.765 -999 -999 -999 -999 -999
2007-04-17 09:06:16 51°14.65 2°52.734 -999 -999 -999 -999 -999
2007-04-17 09:06:21 51°14.648 2°52.703 -999 -999 -999 -999 -999
2007-04-17 09:06:26 51°14.645 2°52.672 -999 -999 -999 -999 -999
2007-04-17 09:06:31 51°14.643 2°52.641 -999 -999 -999 -999 -999
2007-04-17 09:06:36 51°14.639 2°52.61 -999 -999 -999 -999 -999
2007-04-17 09:06:41 51°14.637 2°52.578 -999 -999 -999 -999 -999
2007-04-17 09:06:46 51°14.633 2°52.547 -999 -999 -999 -999 -999
2007-04-17 09:06:51 51°14.631 2°52.516 -999 -999 -999 -999 -999
2007-04-17 09:06:56 51°14.627 2°52.485 -999 -999 -999 -999 -999
2007-04-17 09:07:01 51°14.625 2°52.454 -999 -999 -999 -999 -999
2007-04-17 09:07:06 51°14.622 2°52.423 -999 -999 -999 -999 -999
2007-04-17 09:07:11 51°14.619 2°52.392 -999 -999 -999 -999 -999
2007-04-17 09:07:16 51°14.614 2°52.362 -999 -999 -999 -999 -999
2007-04-17 09:07:21 51°14.609 2°52.332 -999 -999 -999 -999 -999
2007-04-17 09:07:26 51°14.602 2°52.302 -999 -999 -999 -999 -999
2007-04-17 09:07:31 51°14.596 2°52.272 -999 -999 -999 -999 -999
2007-04-17 09:07:36 51°14.588 2°52.243 -999 -999 -999 -999 -999
2007-04-17 09:07:41 51°14.581 2°52.213 -999 -999 -999 -999 -999
2007-04-17 09:07:46 51°14.573 2°52.184 -999 -999 -999 -999 -999
2007-04-17 09:07:51 51°14.566 2°52.155 -999 -999 -999 -999 -999
2007-04-17 09:07:56 51°14.557 2°52.125 -999 -999 -999 -999 -999
2007-04-17 09:08:01 51°14.55 2°52.096 -999 -999 -999 -999 -999
2007-04-17 09:08:06 51°14.542 2°52.067 -999 -999 -999 -999 -999
2007-04-17 09:08:11 51°14.535 2°52.038 -999 -999 -999 -999 -999
2007-04-17 09:08:16 51°14.527 2°52.008 -999 -999 -999 -999 -999
2007-04-17 09:08:21 51°14.52 2°51.979 -999 -999 -999 -999 -999
2007-04-17 09:08:26 51°14.512 2°51.95 -999 -999 -999 -999 -999
2007-04-17 09:08:31 51°14.504 2°51.92 -999 -999 -999 -999 -999
2007-04-17 09:08:36 51°14.496 2°51.891 -999 -999 -999 -999 -999
2007-04-17 09:08:41 51°14.489 2°51.861 -999 -999 -999 -999 -999
2007-04-17 09:08:46 51°14.481 2°51.832 -999 -999 -999 -999 -999
2007-04-17 09:08:51 51°14.474 2°51.802 -999 -999 -999 -999 -999
2007-04-17 09:08:56 51°14.467 2°51.773 -999 -999 -999 -999 -999
2007-04-17 09:09:01 51°14.46 2°51.744 -999 -999 -999 -999 -999
2007-04-17 09:09:06 51°14.452 2°51.714 -999 -999 -999 -999 -999
2007-04-17 09:09:11 51°14.446 2°51.684 -999 -999 -999 -999 -999
2007-04-17 09:09:16 51°14.438 2°51.655 -999 -999 -999 -999 -999
2007-04-17 09:09:21 51°14.431 2°51.625 -999 -999 -999 -999 -999
2007-04-17 09:09:26 51°14.424 2°51.596 -999 -999 -999 -999 -999
2007-04-17 09:09:31 51°14.416 2°51.566 -999 -999 -999 -999 -999
2007-04-17 09:09:36 51°14.409 2°51.536 -999 -999 -999 -999 -999
2007-04-17 09:09:41 51°14.402 2°51.507 -999 -999 -999 -999 -999
2007-04-17 09:09:46 51°14.395 2°51.476 -999 -999 -999 -999 -999
2007-04-17 09:09:51 51°14.387 2°51.447 -999 -999 -999 -999 -999
2007-04-17 09:09:56 51°14.381 2°51.417 -999 -999 -999 -999 -999
2007-04-17 09:10:01 51°14.373 2°51.387 -999 -999 -999 -999 -999
2007-04-17 09:10:06 51°14.366 2°51.357 -999 -999 -999 -999 -999
2007-04-17 09:10:11 51°14.36 2°51.327 -999 -999 -999 -999 -999
2007-04-17 09:10:16 51°14.353 2°51.297 -999 -999 -999 -999 -999
2007-04-17 09:10:21 51°14.346 2°51.267 -999 -999 -999 -999 -999
2007-04-17 09:10:26 51°14.339 2°51.237 -999 -999 -999 -999 -999
2007-04-17 09:10:31 51°14.332 2°51.207 -999 -999 -999 -999 -999
2007-04-17 09:10:36 51°14.325 2°51.177 -999 -999 -999 -999 -999
2007-04-17 09:10:41 51°14.318 2°51.147 -999 -999 -999 -999 -999
2007-04-17 09:10:46 51°14.31 2°51.118 -999 -999 -999 -999 -999
2007-04-17 09:10:51 51°14.303 2°51.088 -999 -999 -999 -999 -999
2007-04-17 09:10:56 51°14.296 2°51.058 -999 -999 -999 -999 -999
2007-04-17 09:11:01 51°14.289 2°51.028 -999 -999 -999 -999 -999
2007-04-17 09:11:06 51°14.282 2°50.998 -999 -999 -999 -999 -999
2007-04-17 09:11:11 51°14.274 2°50.969 -999 -999 -999 -999 -999
2007-04-17 09:11:16 51°14.267 2°50.939 -999 -999 -999 -999 -999
2007-04-17 09:11:21 51°14.26 2°50.909 -999 -999 -999 -999 -999
2007-04-17 09:11:26 51°14.252 2°50.879 -999 -999 -999 -999 -999
2007-04-17 09:11:31 51°14.245 2°50.849 -999 -999 -999 -999 -999
2007-04-17 09:11:36 51°14.237 2°50.82 -999 -999 -999 -999 -999
2007-04-17 09:11:41 51°14.23 2°50.79 -999 -999 -999 -999 -999
2007-04-17 09:11:46 51°14.222 2°50.761 -999 -999 -999 -999 -999
2007-04-17 09:11:51 51°14.215 2°50.73 -999 -999 -999 -999 -999
2007-04-17 09:11:56 51°14.207 2°50.7 -999 -999 -999 -999 -999
2007-04-17 09:12:01 51°14.2 2°50.67 -999 -999 -999 -999 -999
2007-04-17 09:12:06 51°14.192 2°50.64 -999 -999 -999 -999 -999
2007-04-17 09:12:11 51°14.186 2°50.61 -999 -999 -999 -999 -999
2007-04-17 09:12:16 51°14.179 2°50.58 -999 -999 -999 -999 -999
2007-04-17 09:12:21 51°14.172 2°50.55 -999 -999 -999 -999 -999
2007-04-17 09:12:26 51°14.165 2°50.52 -999 -999 -999 -999 -999
2007-04-17 09:12:31 51°14.158 2°50.49 -999 -999 -999 -999 -999
2007-04-17 09:12:36 51°14.151 2°50.46 -999 -999 -999 -999 -999
2007-04-17 09:12:41 51°14.145 2°50.432 -999 -999 -999 -999 -999
2007-04-17 09:12:46 51°14.139 2°50.405 -999 -999 -999 -999 -999
2007-04-17 09:12:51 51°14.132 2°50.379 -999 -999 -999 -999 -999
2007-04-17 09:12:56 51°14.126 2°50.354 -999 -999 -999 -999 -999
2007-04-17 09:13:01 51°14.119 2°50.333 -999 -999 -999 -999 -999
2007-04-17 09:13:06 51°14.112 2°50.314 -999 -999 -999 -999 -999
2007-04-17 09:13:11 51°14.104 2°50.297 -999 -999 -999 -999 -999
2007-04-17 09:13:16 51°14.096 2°50.283 -999 -999 -999 -999 -999
2007-04-17 09:13:21 51°14.088 2°50.27 -999 -999 -999 -999 -999
2007-04-17 09:13:26 51°14.08 2°50.259 -999 -999 -999 -999 -999
2007-04-17 09:13:31 51°14.072 2°50.25 -999 -999 -999 -999 -999
2007-04-17 09:13:36 51°14.064 2°50.242 -999 -999 -999 -999 -999
2007-04-17 09:13:41 51°14.056 2°50.235 -999 -999 -999 -999 -999
2007-04-17 09:13:46 51°14.049 2°50.229 -999 -999 -999 -999 -999
2007-04-17 09:13:51 51°14.041 2°50.224 -999 -999 -999 -999 -999
2007-04-17 09:13:56 51°14.034 2°50.219 -999 -999 -999 -999 -999
2007-04-17 09:14:01 51°14.028 2°50.214 -999 -999 -999 -999 -999
2007-04-17 09:14:06 51°14.022 2°50.209 -999 -999 -999 -999 -999
2007-04-17 09:14:11 51°14.016 2°50.205 -999 -999 -999 -999 -999
2007-04-17 09:14:16 51°14.011 2°50.2 -999 -999 -999 -999 -999
2007-04-17 09:14:21 51°14.007 2°50.195 -999 -999 -999 -999 -999
2007-04-17 09:14:26 51°14.002 2°50.19 -999 -999 -999 -999 -999
2007-04-17 09:14:31 51°13.998 2°50.186 -999 -999 -999 -999 -999
2007-04-17 09:14:36 51°13.995 2°50.18 -999 -999 -999 -999 -999
2007-04-17 09:14:41 51°13.991 2°50.175 -999 -999 -999 -999 -999
2007-04-17 09:14:46 51°13.988 2°50.171 -999 -999 -999 -999 -999
2007-04-17 09:14:51 51°13.985 2°50.166 -999 -999 -999 -999 -999
2007-04-17 09:14:56 51°13.982 2°50.161 -999 -999 -999 -999 -999
2007-04-17 09:15:01 51°13.979 2°50.156 -999 -999 -999 -999 -999
2007-04-17 09:15:06 51°13.976 2°50.151 -999 -999 -999 -999 -999
2007-04-17 09:15:11 51°13.973 2°50.146 -999 -999 -999 -999 -999
2007-04-17 09:15:16 51°13.97 2°50.141 -999 -999 -999 -999 -999
2007-04-17 09:15:21 51°13.967 2°50.136 -999 -999 -999 -999 -999
2007-04-17 09:15:26 51°13.965 2°50.131 -999 -999 -999 -999 -999
2007-04-17 09:15:31 51°13.962 2°50.126 -999 -999 -999 -999 -999
2007-04-17 09:15:36 51°13.959 2°50.121 -999 -999 -999 -999 -999
2007-04-17 09:15:41 51°13.956 2°50.116 -999 -999 -999 -999 -999
2007-04-17 09:15:46 51°13.953 2°50.111 -999 -999 -999 -999 -999
2007-04-17 09:15:51 51°13.95 2°50.106 -999 -999 -999 -999 -999
2007-04-17 09:15:56 51°13.947 2°50.1 -999 -999 -999 -999 -999
2007-04-17 09:16:01 51°13.945 2°50.095 -999 -999 -999 -999 -999
2007-04-17 09:16:06 51°13.942 2°50.089 -999 -999 -999 -999 -999
2007-04-17 09:16:11 51°13.939 2°50.082 -999 -999 -999 -999 -999
2007-04-17 09:16:16 51°13.937 2°50.075 -999 -999 -999 -999 -999
2007-04-17 09:16:21 51°13.934 2°50.068 -999 -999 -999 -999 -999
2007-04-17 09:16:26 51°13.932 2°50.06 -999 -999 -999 -999 -999
2007-04-17 09:16:31 51°13.93 2°50.052 -999 -999 -999 -999 -999
2007-04-17 09:16:36 51°13.928 2°50.044 -999 -999 -999 -999 -999
2007-04-17 09:16:41 51°13.926 2°50.036 -999 -999 -999 -999 -999
2007-04-17 09:16:46 51°13.924 2°50.027 -999 -999 -999 -999 -999
2007-04-17 09:16:51 51°13.923 2°50.019 -999 -999 -999 -999 -999
2007-04-17 09:16:56 51°13.922 2°50.01 -999 -999 -999 -999 -999
2007-04-17 09:17:01 51°13.921 2°50.001 -999 -999 -999 -999 -999
2007-04-17 09:17:06 51°13.92 2°49.992 -999 -999 -999 -999 -999
2007-04-17 09:17:11 51°13.919 2°49.984 -999 -999 -999 -999 -999
2007-04-17 09:17:16 51°13.919 2°49.974 -999 -999 -999 -999 -999
2007-04-17 09:17:21 51°13.919 2°49.965 -999 -999 -999 -999 -999
2007-04-17 09:17:26 51°13.918 2°49.955 -999 -999 -999 -999 -999
2007-04-17 09:17:31 51°13.919 2°49.945 -999 -999 -999 -999 -999
2007-04-17 09:17:36 51°13.919 2°49.935 -999 -999 -999 -999 -999
2007-04-17 09:17:41 51°13.919 2°49.925 -999 -999 -999 -999 -999
2007-04-17 09:17:46 51°13.92 2°49.915 -999 -999 -999 -999 -999
2007-04-17 09:17:51 51°13.92 2°49.905 -999 -999 -999 -999 -999
2007-04-17 09:17:56 51°13.92 2°49.895 -999 -999 -999 -999 -999
2007-04-17 09:18:01 51°13.921 2°49.885 -999 -999 -999 -999 -999
2007-04-17 09:18:06 51°13.921 2°49.875 -999 -999 -999 -999 -999
2007-04-17 09:18:11 51°13.922 2°49.865 -999 -999 -999 -999 -999
2007-04-17 09:18:16 51°13.922 2°49.854 -999 -999 -999 -999 -999
2007-04-17 09:18:21 51°13.922 2°49.844 -999 -999 -999 -999 -999
2007-04-17 09:18:26 51°13.923 2°49.833 -999 -999 -999 -999 -999
2007-04-17 09:18:31 51°13.923 2°49.823 -999 -999 -999 -999 -999
2007-04-17 09:18:36 51°13.924 2°49.813 -999 -999 -999 -999 -999
2007-04-17 09:18:41 51°13.924 2°49.802 -999 -999 -999 -999 -999
2007-04-17 09:18:46 51°13.925 2°49.792 -999 -999 -999 -999 -999
2007-04-17 09:18:51 51°13.925 2°49.782 -999 -999 -999 -999 -999
2007-04-17 09:18:56 51°13.925 2°49.772 -999 -999 -999 -999 -999
2007-04-17 09:19:01 51°13.924 2°49.762 -999 -999 -999 -999 -999
2007-04-17 09:19:06 51°13.924 2°49.752 -999 -999 -999 -999 -999
2007-04-17 09:19:11 51°13.923 2°49.742 -999 -999 -999 -999 -999
2007-04-17 09:19:16 51°13.923 2°49.733 -999 -999 -999 -999 -999
2007-04-17 09:19:21 51°13.922 2°49.723 -999 -999 -999 -999 -999
2007-04-17 09:19:26 51°13.921 2°49.714 -999 -999 -999 -999 -999
2007-04-17 09:19:31 51°13.92 2°49.705 -999 -999 -999 -999 -999
2007-04-17 09:19:36 51°13.919 2°49.696 -999 -999 -999 -999 -999
2007-04-17 09:19:41 51°13.918 2°49.688 -999 -999 -999 -999 -999
2007-04-17 09:19:46 51°13.918 2°49.679 -999 -999 -999 -999 -999
2007-04-17 09:19:51 51°13.917 2°49.671 -999 -999 -999 -999 -999
2007-04-17 09:19:56 51°13.916 2°49.663 -999 -999 -999 -999 -999
2007-04-17 09:20:01 51°13.915 2°49.655 -999 -999 -999 -999 -999
2007-04-17 09:20:06 51°13.914 2°49.647 -999 -999 -999 -999 -999
2007-04-17 09:20:11 51°13.913 2°49.64 -999 -999 -999 -999 -999
2007-04-17 09:20:16 51°13.912 2°49.633 -999 -999 -999 -999 -999
2007-04-17 09:20:21 51°13.911 2°49.626 -999 -999 -999 -999 -999
2007-04-17 09:20:26 51°13.91 2°49.618 -999 -999 -999 -999 -999
2007-04-17 09:20:31 51°13.909 2°49.611 -999 -999 -999 -999 -999
2007-04-17 09:20:36 51°13.908 2°49.605 -999 -999 -999 -999 -999
2007-04-17 09:20:41 51°13.907 2°49.598 -999 -999 -999 -999 -999
2007-04-17 09:20:46 51°13.906 2°49.591 -999 -999 -999 -999 -999
2007-04-17 09:20:51 51°13.905 2°49.585 -999 -999 -999 -999 -999
2007-04-17 09:20:56 51°13.904 2°49.578 -999 -999 -999 -999 -999
2007-04-17 09:21:01 51°13.903 2°49.572 -999 -999 -999 -999 -999
2007-04-17 09:21:06 51°13.902 2°49.565 -999 -999 -999 -999 -999
2007-04-17 09:21:11 51°13.9 2°49.559 -999 -999 -999 -999 -999
2007-04-17 09:21:16 51°13.899 2°49.552 -999 -999 -999 -999 -999
2007-04-17 09:21:21 51°13.898 2°49.545 -999 -999 -999 -999 -999
2007-04-17 09:21:26 51°13.897 2°49.538 -999 -999 -999 -999 -999
2007-04-17 09:21:31 51°13.895 2°49.531 -999 -999 -999 -999 -999
2007-04-17 09:21:36 51°13.894 2°49.524 -999 -999 -999 -999 -999
2007-04-17 09:21:41 51°13.892 2°49.517 -999 -999 -999 -999 -999
2007-04-17 09:21:46 51°13.891 2°49.51 -999 -999 -999 -999 -999
2007-04-17 09:21:51 51°13.889 2°49.503 -999 -999 -999 -999 -999
2007-04-17 09:21:56 51°13.887 2°49.496 -999 -999 -999 -999 -999
2007-04-17 09:22:01 51°13.886 2°49.488 -999 -999 -999 -999 -999
2007-04-17 09:22:06 51°13.884 2°49.481 -999 -999 -999 -999 -999
2007-04-17 09:22:11 51°13.882 2°49.474 -999 -999 -999 -999 -999
2007-04-17 09:22:16 51°13.88 2°49.466 -999 -999 -999 -999 -999
2007-04-17 09:22:21 51°13.879 2°49.459 -999 -999 -999 -999 -999
2007-04-17 09:22:26 51°13.877 2°49.451 -999 -999 -999 -999 -999
2007-04-17 09:22:31 51°13.875 2°49.444 -999 -999 -999 -999 -999
2007-04-17 09:22:36 51°13.874 2°49.436 -999 -999 -999 -999 -999
2007-04-17 09:22:41 51°13.872 2°49.429 -999 -999 -999 -999 -999
2007-04-17 09:22:46 51°13.87 2°49.421 -999 -999 -999 -999 -999
2007-04-17 09:22:51 51°13.869 2°49.414 -999 -999 -999 -999 -999
2007-04-17 09:22:56 51°13.867 2°49.407 -999 -999 -999 -999 -999
2007-04-17 09:23:01 51°13.866 2°49.4 -999 -999 -999 -999 -999
2007-04-17 09:23:06 51°13.864 2°49.393 -999 -999 -999 -999 -999
2007-04-17 09:23:11 51°13.863 2°49.385 -999 -999 -999 -999 -999
2007-04-17 09:23:16 51°13.861 2°49.378 -999 -999 -999 -999 -999
2007-04-17 09:23:21 51°13.86 2°49.371 -999 -999 -999 -999 -999
2007-04-17 09:23:26 51°13.858 2°49.364 -999 -999 -999 -999 -999
2007-04-17 09:23:31 51°13.857 2°49.357 -999 -999 -999 -999 -999
2007-04-17 09:23:36 51°13.855 2°49.35 -999 -999 -999 -999 -999
2007-04-17 09:23:41 51°13.853 2°49.343 -999 -999 -999 -999 -999
2007-04-17 09:23:46 51°13.851 2°49.336 -999 -999 -999 -999 -999
2007-04-17 09:23:51 51°13.85 2°49.329 -999 -999 -999 -999 -999
2007-04-17 09:23:56 51°13.848 2°49.323 -999 -999 -999 -999 -999
2007-04-17 09:24:01 51°13.846 2°49.316 -999 -999 -999 -999 -999
2007-04-17 09:24:06 51°13.844 2°49.309 -999 -999 -999 -999 -999
2007-04-17 09:24:11 51°13.842 2°49.302 -999 -999 -999 -999 -999
2007-04-17 09:24:16 51°13.84 2°49.296 -999 -999 -999 -999 -999
2007-04-17 09:24:21 51°13.838 2°49.289 -999 -999 -999 -999 -999
2007-04-17 09:24:26 51°13.836 2°49.282 -999 -999 -999 -999 -999
2007-04-17 09:24:31 51°13.833 2°49.276 -999 -999 -999 -999 -999
2007-04-17 09:24:36 51°13.831 2°49.269 -999 -999 -999 -999 -999
2007-04-17 09:24:41 51°13.829 2°49.262 -999 -999 -999 -999 -999
2007-04-17 09:24:46 51°13.827 2°49.256 -999 -999 -999 -999 -999
2007-04-17 09:24:51 51°13.825 2°49.249 -999 -999 -999 -999 -999
2007-04-17 09:24:56 51°13.823 2°49.242 -999 -999 -999 -999 -999
2007-04-17 09:25:01 51°13.821 2°49.236 -999 -999 -999 -999 -999
2007-04-17 09:25:06 51°13.818 2°49.229 -999 -999 -999 -999 -999
2007-04-17 09:25:11 51°13.816 2°49.223 -999 -999 -999 -999 -999
2007-04-17 09:25:16 51°13.814 2°49.216 -999 -999 -999 -999 -999
2007-04-17 09:25:21 51°13.812 2°49.209 -999 -999 -999 -999 -999
2007-04-17 09:25:26 51°13.809 2°49.203 -999 -999 -999 -999 -999
2007-04-17 09:25:31 51°13.807 2°49.196 -999 -999 -999 -999 -999
2007-04-17 09:25:36 51°13.805 2°49.19 -999 -999 -999 -999 -999
2007-04-17 09:25:41 51°13.802 2°49.183 -999 -999 -999 -999 -999
2007-04-17 09:25:46 51°13.8 2°49.176 -999 -999 -999 -999 -999
2007-04-17 09:25:51 51°13.797 2°49.17 -999 -999 -999 -999 -999
2007-04-17 09:25:56 51°13.795 2°49.163 -999 -999 -999 -999 -999
2007-04-17 09:26:01 51°13.792 2°49.157 -999 -999 -999 -999 -999
2007-04-17 09:26:06 51°13.789 2°49.15 -999 -999 -999 -999 -999
2007-04-17 09:26:11 51°13.787 2°49.144 -999 -999 -999 -999 -999
2007-04-17 09:26:16 51°13.785 2°49.137 -999 -999 -999 -999 -999
2007-04-17 09:26:21 51°13.782 2°49.13 -999 -999 -999 -999 -999
2007-04-17 09:26:26 51°13.78 2°49.124 -999 -999 -999 -999 -999
2007-04-17 09:26:31 51°13.777 2°49.117 -999 -999 -999 -999 -999
2007-04-17 09:26:36 51°13.775 2°49.11 -999 -999 -999 -999 -999
2007-04-17 09:26:41 51°13.772 2°49.104 -999 -999 -999 -999 -999
2007-04-17 09:26:46 51°13.77 2°49.097 -999 -999 -999 -999 -999
2007-04-17 09:26:51 51°13.768 2°49.09 -999 -999 -999 -999 -999
2007-04-17 09:26:56 51°13.765 2°49.084 -999 -999 -999 -999 -999
2007-04-17 09:27:01 51°13.763 2°49.077 -999 -999 -999 -999 -999
2007-04-17 09:27:06 51°13.761 2°49.071 -999 -999 -999 -999 -999
2007-04-17 09:27:11 51°13.758 2°49.064 -999 -999 -999 -999 -999
2007-04-17 09:27:17 51°13.756 2°49.056 -999 -999 -999 -999 -999
2007-04-17 09:27:21 51°13.754 2°49.051 -999 -999 -999 -999 -999
2007-04-17 09:27:26 51°13.752 2°49.044 -999 -999 -999 -999 -999
2007-04-17 09:27:31 51°13.749 2°49.038 -999 -999 -999 -999 -999
2007-04-17 09:27:36 51°13.747 2°49.031 -999 -999 -999 -999 -999
2007-04-17 09:27:41 51°13.745 2°49.025 -999 -999 -999 -999 -999
2007-04-17 09:27:46 51°13.743 2°49.018 -999 -999 -999 -999 -999
2007-04-17 09:27:51 51°13.741 2°49.011 -999 -999 -999 -999 -999
2007-04-17 09:27:56 51°13.739 2°49.005 -999 -999 -999 -999 -999
2007-04-17 09:28:01 51°13.737 2°48.998 -999 -999 -999 -999 -999
2007-04-17 09:28:06 51°13.735 2°48.991 -999 -999 -999 -999 -999
2007-04-17 09:28:11 51°13.733 2°48.985 -999 -999 -999 -999 -999
2007-04-17 09:28:16 51°13.731 2°48.978 -999 -999 -999 -999 -999
2007-04-17 09:28:21 51°13.729 2°48.972 -999 -999 -999 -999 -999
2007-04-17 09:28:26 51°13.728 2°48.965 -999 -999 -999 -999 -999
2007-04-17 09:28:31 51°13.725 2°48.958 -999 -999 -999 -999 -999
2007-04-17 09:28:36 51°13.724 2°48.952 -999 -999 -999 -999 -999
2007-04-17 09:28:41 51°13.722 2°48.945 -999 -999 -999 -999 -999
2007-04-17 09:28:46 51°13.72 2°48.938 -999 -999 -999 -999 -999
2007-04-17 09:28:51 51°13.718 2°48.932 -999 -999 -999 -999 -999
2007-04-17 09:28:56 51°13.716 2°48.925 -999 -999 -999 -999 -999
2007-04-17 09:29:01 51°13.714 2°48.919 -999 -999 -999 -999 -999
2007-04-17 09:29:06 51°13.711 2°48.912 -999 -999 -999 -999 -999
2007-04-17 09:29:11 51°13.709 2°48.906 -999 -999 -999 -999 -999
2007-04-17 09:29:16 51°13.707 2°48.899 -999 -999 -999 -999 -999
2007-04-17 09:29:21 51°13.705 2°48.893 -999 -999 -999 -999 -999
2007-04-17 09:29:26 51°13.703 2°48.886 -999 -999 -999 -999 -999
2007-04-17 09:29:31 51°13.701 2°48.879 -999 -999 -999 -999 -999
2007-04-17 09:29:36 51°13.699 2°48.873 -999 -999 -999 -999 -999
2007-04-17 09:29:41 51°13.697 2°48.867 -999 -999 -999 -999 -999
2007-04-17 09:29:46 51°13.695 2°48.86 -999 -999 -999 -999 -999
2007-04-17 09:29:51 51°13.693 2°48.854 -999 -999 -999 -999 -999
2007-04-17 09:29:56 51°13.691 2°48.847 -999 -999 -999 -999 -999
2007-04-17 09:30:01 51°13.689 2°48.84 -999 -999 -999 -999 -999
2007-04-17 09:30:06 51°13.687 2°48.834 -999 -999 -999 -999 -999
2007-04-17 09:30:11 51°13.685 2°48.827 -999 -999 -999 -999 -999
2007-04-17 09:30:16 51°13.683 2°48.821 -999 -999 -999 -999 -999
2007-04-17 09:30:21 51°13.68 2°48.814 -999 -999 -999 -999 -999
2007-04-17 09:30:26 51°13.678 2°48.807 -999 -999 -999 -999 -999
2007-04-17 09:30:31 51°13.676 2°48.801 -999 -999 -999 -999 -999
2007-04-17 09:30:36 51°13.674 2°48.794 -999 -999 -999 -999 -999
2007-04-17 09:30:41 51°13.672 2°48.788 -999 -999 -999 -999 -999
2007-04-17 09:30:46 51°13.67 2°48.781 -999 -999 -999 -999 -999
2007-04-17 09:30:51 51°13.668 2°48.775 -999 -999 -999 -999 -999
2007-04-17 09:30:56 51°13.665 2°48.768 -999 -999 -999 -999 -999
2007-04-17 09:31:01 51°13.663 2°48.762 -999 -999 -999 -999 -999
2007-04-17 09:31:06 51°13.661 2°48.755 -999 -999 -999 -999 -999
2007-04-17 09:31:11 51°13.659 2°48.749 -999 -999 -999 -999 -999
2007-04-17 09:31:16 51°13.657 2°48.742 -999 -999 -999 -999 -999
2007-04-17 09:31:21 51°13.655 2°48.735 -999 -999 -999 -999 -999
2007-04-17 09:31:26 51°13.652 2°48.729 -999 -999 -999 -999 -999
2007-04-17 09:31:31 51°13.65 2°48.722 -999 -999 -999 -999 -999
2007-04-17 09:31:36 51°13.648 2°48.716 -999 -999 -999 -999 -999
2007-04-17 09:31:41 51°13.646 2°48.71 -999 -999 -999 -999 -999
2007-04-17 09:31:46 51°13.643 2°48.703 -999 -999 -999 -999 -999
2007-04-17 09:31:51 51°13.641 2°48.697 -999 -999 -999 -999 -999
2007-04-17 09:31:56 51°13.638 2°48.69 -999 -999 -999 -999 -999
2007-04-17 09:32:01 51°13.636 2°48.684 -999 -999 -999 -999 -999
2007-04-17 09:32:06 51°13.634 2°48.678 -999 -999 -999 -999 -999
2007-04-17 09:32:11 51°13.631 2°48.672 -999 -999 -999 -999 -999
2007-04-17 09:32:16 51°13.629 2°48.665 -999 -999 -999 -999 -999
2007-04-17 09:32:21 51°13.626 2°48.659 -999 -999 -999 -999 -999
2007-04-17 09:32:26 51°13.624 2°48.653 -999 -999 -999 -999 -999
2007-04-17 09:32:31 51°13.621 2°48.647 -999 -999 -999 -999 -999
2007-04-17 09:32:36 51°13.618 2°48.64 -999 -999 -999 -999 -999
2007-04-17 09:32:41 51°13.616 2°48.634 -999 -999 -999 -999 -999
2007-04-17 09:32:46 51°13.613 2°48.628 -999 -999 -999 -999 -999
2007-04-17 09:32:51 51°13.61 2°48.622 -999 -999 -999 -999 -999
2007-04-17 09:32:56 51°13.608 2°48.616 -999 -999 -999 -999 -999
2007-04-17 09:33:01 51°13.605 2°48.61 -999 -999 -999 -999 -999
2007-04-17 09:33:06 51°13.602 2°48.603 -999 -999 -999 -999 -999
2007-04-17 09:33:11 51°13.599 2°48.597 -999 -999 -999 -999 -999
2007-04-17 09:33:16 51°13.596 2°48.591 -999 -999 -999 -999 -999
2007-04-17 09:33:21 51°13.594 2°48.585 -999 -999 -999 -999 -999
2007-04-17 09:33:26 51°13.591 2°48.579 -999 -999 -999 -999 -999
2007-04-17 09:33:31 51°13.588 2°48.573 -999 -999 -999 -999 -999
2007-04-17 09:33:36 51°13.585 2°48.567 -999 -999 -999 -999 -999
2007-04-17 09:33:41 51°13.582 2°48.561 -999 -999 -999 -999 -999
2007-04-17 09:33:46 51°13.58 2°48.555 -999 -999 -999 -999 -999
2007-04-17 09:33:51 51°13.577 2°48.549 -999 -999 -999 -999 -999
2007-04-17 09:33:56 51°13.574 2°48.543 -999 -999 -999 -999 -999
2007-04-17 09:34:01 51°13.571 2°48.537 -999 -999 -999 -999 -999
2007-04-17 09:34:06 51°13.568 2°48.531 -999 -999 -999 -999 -999
2007-04-17 09:34:11 51°13.565 2°48.525 -999 -999 -999 -999 -999
2007-04-17 09:34:16 51°13.562 2°48.519 -999 -999 -999 -999 -999
2007-04-17 09:34:21 51°13.559 2°48.513 -999 -999 -999 -999 -999
2007-04-17 09:34:26 51°13.557 2°48.507 -999 -999 -999 -999 -999
2007-04-17 09:34:31 51°13.554 2°48.501 -999 -999 -999 -999 -999
2007-04-17 09:34:36 51°13.551 2°48.495 -999 -999 -999 -999 -999
2007-04-17 09:34:41 51°13.548 2°48.489 -999 -999 -999 -999 -999
2007-04-17 09:34:46 51°13.545 2°48.483 -999 -999 -999 -999 -999
2007-04-17 09:34:51 51°13.543 2°48.476 -999 -999 -999 -999 -999
2007-04-17 09:34:56 51°13.54 2°48.47 -999 -999 -999 -999 -999
2007-04-17 09:35:01 51°13.538 2°48.464 -999 -999 -999 -999 -999
2007-04-17 09:35:06 51°13.535 2°48.458 -999 -999 -999 -999 -999
2007-04-17 09:35:11 51°13.532 2°48.451 -999 -999 -999 -999 -999
2007-04-17 09:35:16 51°13.53 2°48.445 -999 -999 -999 -999 -999
2007-04-17 09:35:21 51°13.527 2°48.439 -999 -999 -999 -999 -999
2007-04-17 09:35:26 51°13.525 2°48.433 -999 -999 -999 -999 -999
2007-04-17 09:35:31 51°13.522 2°48.427 -999 -999 -999 -999 -999
2007-04-17 09:35:36 51°13.52 2°48.421 -999 -999 -999 -999 -999
2007-04-17 09:35:41 51°13.517 2°48.415 -999 -999 -999 -999 -999
2007-04-17 09:35:46 51°13.515 2°48.408 -999 -999 -999 -999 -999
2007-04-17 09:35:51 51°13.512 2°48.402 -999 -999 -999 -999 -999
2007-04-17 09:35:56 51°13.51 2°48.396 -999 -999 -999 -999 -999
2007-04-17 09:36:01 51°13.507 2°48.39 -999 -999 -999 -999 -999
2007-04-17 09:36:06 51°13.505 2°48.383 -999 -999 -999 -999 -999
2007-04-17 09:36:11 51°13.503 2°48.377 -999 -999 -999 -999 -999
2007-04-17 09:36:16 51°13.5 2°48.371 -999 -999 -999 -999 -999
2007-04-17 09:36:21 51°13.498 2°48.365 -999 -999 -999 -999 -999
2007-04-17 09:36:26 51°13.496 2°48.358 -999 -999 -999 -999 -999
2007-04-17 09:36:31 51°13.494 2°48.352 -999 -999 -999 -999 -999
2007-04-17 09:36:36 51°13.491 2°48.345 -999 -999 -999 -999 -999
2007-04-17 09:36:41 51°13.489 2°48.339 -999 -999 -999 -999 -999
2007-04-17 09:36:46 51°13.487 2°48.333 -999 -999 -999 -999 -999
2007-04-17 09:36:51 51°13.485 2°48.327 -999 -999 -999 -999 -999
2007-04-17 09:36:56 51°13.483 2°48.321 -999 -999 -999 -999 -999
2007-04-17 09:37:01 51°13.481 2°48.315 -999 -999 -999 -999 -999
2007-04-17 09:37:06 51°13.479 2°48.308 -999 -999 -999 -999 -999
2007-04-17 09:37:11 51°13.476 2°48.302 -999 -999 -999 -999 -999
2007-04-17 09:37:16 51°13.475 2°48.295 -999 -999 -999 -999 -999
2007-04-17 09:37:21 51°13.473 2°48.289 -999 -999 -999 -999 -999
2007-04-17 09:37:26 51°13.471 2°48.282 -999 -999 -999 -999 -999
2007-04-17 09:37:31 51°13.469 2°48.276 -999 -999 -999 -999 -999
2007-04-17 09:37:36 51°13.467 2°48.27 -999 -999 -999 -999 -999
2007-04-17 09:37:41 51°13.465 2°48.264 -999 -999 -999 -999 -999
2007-04-17 09:37:46 51°13.463 2°48.257 -999 -999 -999 -999 -999
2007-04-17 09:37:51 51°13.461 2°48.251 -999 -999 -999 -999 -999
2007-04-17 09:37:56 51°13.459 2°48.245 -999 -999 -999 -999 -999
2007-04-17 09:38:01 51°13.457 2°48.238 -999 -999 -999 -999 -999
2007-04-17 09:38:06 51°13.455 2°48.232 -999 -999 -999 -999 -999
2007-04-17 09:38:11 51°13.454 2°48.225 -999 -999 -999 -999 -999
2007-04-17 09:38:16 51°13.452 2°48.219 -999 -999 -999 -999 -999
2007-04-17 09:38:21 51°13.45 2°48.213 -999 -999 -999 -999 -999
2007-04-17 09:38:26 51°13.448 2°48.206 -999 -999 -999 -999 -999
2007-04-17 09:38:31 51°13.447 2°48.2 -999 -999 -999 -999 -999
2007-04-17 09:38:36 51°13.445 2°48.193 -999 -999 -999 -999 -999
2007-04-17 09:38:41 51°13.443 2°48.187 -999 -999 -999 -999 -999
2007-04-17 09:38:46 51°13.441 2°48.18 -999 -999 -999 -999 -999
2007-04-17 09:38:51 51°13.44 2°48.174 -999 -999 -999 -999 -999
2007-04-17 09:38:56 51°13.438 2°48.168 -999 -999 -999 -999 -999
2007-04-17 09:39:01 51°13.436 2°48.162 -999 -999 -999 -999 -999
2007-04-17 09:39:06 51°13.434 2°48.155 -999 -999 -999 -999 -999
2007-04-17 09:39:11 51°13.433 2°48.149 -999 -999 -999 -999 -999
2007-04-17 09:39:16 51°13.431 2°48.143 -999 -999 -999 -999 -999
2007-04-17 09:39:21 51°13.429 2°48.136 -999 -999 -999 -999 -999
2007-04-17 09:39:26 51°13.428 2°48.13 -999 -999 -999 -999 -999
2007-04-17 09:39:31 51°13.426 2°48.123 -999 -999 -999 -999 -999
2007-04-17 09:39:36 51°13.424 2°48.117 -999 -999 -999 -999 -999
2007-04-17 09:39:41 51°13.423 2°48.111 -999 -999 -999 -999 -999
2007-04-17 09:39:46 51°13.421 2°48.105 -999 -999 -999 -999 -999
2007-04-17 09:39:51 51°13.42 2°48.098 -999 -999 -999 -999 -999
2007-04-17 09:39:56 51°13.418 2°48.092 -999 -999 -999 -999 -999
2007-04-17 09:40:01 51°13.416 2°48.086 -999 -999 -999 -999 -999
2007-04-17 09:40:06 51°13.415 2°48.079 -999 -999 -999 -999 -999
2007-04-17 09:40:11 51°13.414 2°48.073 -999 -999 -999 -999 -999
2007-04-17 09:40:16 51°13.412 2°48.067 -999 -999 -999 -999 -999
2007-04-17 09:40:21 51°13.41 2°48.06 -999 -999 -999 -999 -999
2007-04-17 09:40:26 51°13.409 2°48.054 -999 -999 -999 -999 -999
2007-04-17 09:40:31 51°13.408 2°48.048 -999 -999 -999 -999 -999
2007-04-17 09:40:36 51°13.406 2°48.041 -999 -999 -999 -999 -999
2007-04-17 09:40:41 51°13.405 2°48.035 -999 -999 -999 -999 -999
2007-04-17 09:40:46 51°13.403 2°48.029 -999 -999 -999 -999 -999
2007-04-17 09:40:51 51°13.402 2°48.022 -999 -999 -999 -999 -999
2007-04-17 09:40:56 51°13.401 2°48.016 -999 -999 -999 -999 -999
2007-04-17 09:41:01 51°13.4 2°48.01 -999 -999 -999 -999 -999
2007-04-17 09:41:06 51°13.399 2°48.004 -999 -999 -999 -999 -999
2007-04-17 09:41:11 51°13.398 2°47.997 -999 -999 -999 -999 -999
2007-04-17 09:41:16 51°13.397 2°47.991 -999 -999 -999 -999 -999
2007-04-17 09:41:21 51°13.396 2°47.985 -999 -999 -999 -999 -999
2007-04-17 09:41:26 51°13.395 2°47.979 -999 -999 -999 -999 -999
2007-04-17 09:41:31 51°13.395 2°47.973 -999 -999 -999 -999 -999
2007-04-17 09:41:36 51°13.394 2°47.967 -999 -999 -999 -999 -999
2007-04-17 09:41:41 51°13.393 2°47.961 -999 -999 -999 -999 -999
2007-04-17 09:41:46 51°13.392 2°47.956 -999 -999 -999 -999 -999
2007-04-17 09:41:51 51°13.392 2°47.95 -999 -999 -999 -999 -999
2007-04-17 09:41:56 51°13.391 2°47.944 -999 -999 -999 -999 -999
2007-04-17 09:42:01 51°13.39 2°47.938 -999 -999 -999 -999 -999
2007-04-17 09:42:06 51°13.39 2°47.932 -999 -999 -999 -999 -999
2007-04-17 09:42:11 51°13.389 2°47.926 -999 -999 -999 -999 -999
2007-04-17 09:42:16 51°13.388 2°47.921 -999 -999 -999 -999 -999
2007-04-17 09:42:21 51°13.388 2°47.915 -999 -999 -999 -999 -999
2007-04-17 09:42:26 51°13.387 2°47.909 -999 -999 -999 -999 -999
2007-04-17 09:42:31 51°13.386 2°47.904 -999 -999 -999 -999 -999
2007-04-17 09:42:36 51°13.386 2°47.898 -999 -999 -999 -999 -999
2007-04-17 09:42:41 51°13.385 2°47.892 -999 -999 -999 -999 -999
2007-04-17 09:42:46 51°13.385 2°47.886 -999 -999 -999 -999 -999
2007-04-17 09:42:51 51°13.384 2°47.881 -999 -999 -999 -999 -999
2007-04-17 09:42:56 51°13.384 2°47.875 -999 -999 -999 -999 -999
2007-04-17 09:43:01 51°13.383 2°47.87 -999 -999 -999 -999 -999
2007-04-17 09:43:06 51°13.383 2°47.864 -999 -999 -999 -999 -999
2007-04-17 09:43:11 51°13.383 2°47.859 -999 -999 -999 -999 -999
2007-04-17 09:43:16 51°13.383 2°47.854 -999 -999 -999 -999 -999
2007-04-17 09:43:21 51°13.383 2°47.849 -999 -999 -999 -999 -999
2007-04-17 09:43:26 51°13.383 2°47.844 -999 -999 -999 -999 -999
2007-04-17 09:43:31 51°13.383 2°47.839 -999 -999 -999 -999 -999
2007-04-17 09:43:36 51°13.383 2°47.834 -999 -999 -999 -999 -999
2007-04-17 09:43:41 51°13.383 2°47.829 -999 -999 -999 -999 -999
2007-04-17 09:43:46 51°13.383 2°47.825 -999 -999 -999 -999 -999
2007-04-17 09:43:51 51°13.383 2°47.82 -999 -999 -999 -999 -999
2007-04-17 09:43:56 51°13.384 2°47.815 -999 -999 -999 -999 -999
2007-04-17 09:44:01 51°13.384 2°47.811 -999 -999 -999 -999 -999
2007-04-17 09:44:06 51°13.385 2°47.806 -999 -999 -999 -999 -999
2007-04-17 09:44:11 51°13.385 2°47.802 -999 -999 -999 -999 -999
2007-04-17 09:44:16 51°13.385 2°47.798 -999 -999 -999 -999 -999
2007-04-17 09:44:21 51°13.386 2°47.794 -999 -999 -999 -999 -999
2007-04-17 09:44:26 51°13.386 2°47.79 -999 -999 -999 -999 -999
2007-04-17 09:44:31 51°13.386 2°47.786 -999 -999 -999 -999 -999
2007-04-17 09:44:36 51°13.386 2°47.783 -999 -999 -999 -999 -999
2007-04-17 09:44:41 51°13.386 2°47.779 -999 -999 -999 -999 -999
2007-04-17 09:44:46 51°13.386 2°47.776 -999 -999 -999 -999 -999
2007-04-17 09:44:51 51°13.386 2°47.772 -999 -999 -999 -999 -999
2007-04-17 09:44:56 51°13.386 2°47.769 -999 -999 -999 -999 -999
2007-04-17 09:45:01 51°13.386 2°47.766 -999 -999 -999 -999 -999
2007-04-17 09:45:06 51°13.386 2°47.763 -999 -999 -999 -999 -999
2007-04-17 09:45:11 51°13.386 2°47.76 -999 -999 -999 -999 -999
2007-04-17 09:45:17 51°13.385 2°47.756 -999 -999 -999 -999 -999
2007-04-17 09:45:21 51°13.385 2°47.754 -999 -999 -999 -999 -999
2007-04-17 09:45:26 51°13.385 2°47.751 -999 -999 -999 -999 -999
2007-04-17 09:45:31 51°13.384 2°47.748 -999 -999 -999 -999 -999
2007-04-17 09:45:36 51°13.384 2°47.745 -999 -999 -999 -999 -999
2007-04-17 09:45:41 51°13.383 2°47.742 -999 -999 -999 -999 -999
2007-04-17 09:45:46 51°13.383 2°47.739 -999 -999 -999 -999 -999
2007-04-17 09:45:51 51°13.383 2°47.737 -999 -999 -999 -999 -999
2007-04-17 09:45:56 51°13.382 2°47.734 -999 -999 -999 -999 -999
2007-04-17 09:46:01 51°13.381 2°47.732 -999 -999 -999 -999 -999
2007-04-17 09:46:06 51°13.381 2°47.73 -999 -999 -999 -999 -999
2007-04-17 09:46:11 51°13.38 2°47.727 -999 -999 -999 -999 -999
2007-04-17 09:46:16 51°13.38 2°47.725 -999 -999 -999 -999 -999
2007-04-17 09:46:21 51°13.379 2°47.722 -999 -999 -999 -999 -999
2007-04-17 09:46:26 51°13.378 2°47.72 -999 -999 -999 -999 -999
2007-04-17 09:46:31 51°13.377 2°47.718 -999 -999 -999 -999 -999
2007-04-17 09:46:36 51°13.377 2°47.715 -999 -999 -999 -999 -999
2007-04-17 09:46:41 51°13.376 2°47.713 -999 -999 -999 -999 -999
2007-04-17 09:46:46 51°13.375 2°47.711 -999 -999 -999 -999 -999
2007-04-17 09:46:51 51°13.374 2°47.709 -999 -999 -999 -999 -999
2007-04-17 09:46:56 51°13.373 2°47.707 -999 -999 -999 -999 -999
2007-04-17 09:47:01 51°13.373 2°47.705 -999 -999 -999 -999 -999
2007-04-17 09:47:06 51°13.372 2°47.703 -999 -999 -999 -999 -999
2007-04-17 09:47:11 51°13.371 2°47.701 -999 -999 -999 -999 -999
2007-04-17 09:47:17 51°13.37 2°47.698 -999 -999 -999 -999 -999
2007-04-17 09:47:21 51°13.369 2°47.697 -999 -999 -999 -999 -999
2007-04-17 09:47:26 51°13.368 2°47.694 -999 -999 -999 -999 -999
2007-04-17 09:47:31 51°13.367 2°47.692 -999 -999 -999 -999 -999
2007-04-17 09:47:36 51°13.367 2°47.689 -999 -999 -999 -999 -999
2007-04-17 09:47:41 51°13.367 2°47.686 -999 -999 -999 -999 -999
2007-04-17 09:47:46 51°13.367 2°47.683 -999 -999 -999 -999 -999
2007-04-17 09:47:51 51°13.367 2°47.679 -999 -999 -999 -999 -999
2007-04-17 09:47:56 51°13.368 2°47.675 -999 -999 -999 -999 -999
2007-04-17 09:48:01 51°13.369 2°47.671 -999 -999 -999 -999 -999
2007-04-17 09:48:06 51°13.37 2°47.667 -999 -999 -999 -999 -999
2007-04-17 09:48:11 51°13.373 2°47.663 -999 -999 -999 -999 -999
2007-04-17 09:48:16 51°13.375 2°47.659 -999 -999 -999 -999 -999
2007-04-17 09:48:21 51°13.379 2°47.656 -999 -999 -999 -999 -999
2007-04-17 09:48:26 51°13.382 2°47.653 -999 -999 -999 -999 -999
2007-04-17 09:48:31 51°13.386 2°47.651 -999 -999 -999 -999 -999
2007-04-17 09:48:36 51°13.39 2°47.65 -999 -999 -999 -999 -999
2007-04-17 09:48:41 51°13.394 2°47.65 -999 -999 -999 -999 -999
2007-04-17 09:48:46 51°13.398 2°47.651 -999 -999 -999 -999 -999
2007-04-17 09:48:51 51°13.402 2°47.653 -999 -999 -999 -999 -999
2007-04-17 09:48:56 51°13.406 2°47.657 -999 -999 -999 -999 -999
2007-04-17 09:49:01 51°13.41 2°47.662 -999 -999 -999 -999 -999
2007-04-17 09:49:06 51°13.413 2°47.668 -999 -999 -999 -999 -999
2007-04-17 09:49:11 51°13.416 2°47.675 -999 -999 -999 -999 -999
2007-04-17 09:49:16 51°13.418 2°47.683 -999 -999 -999 -999 -999
2007-04-17 09:49:21 51°13.419 2°47.692 -999 -999 -999 -999 -999
2007-04-17 09:49:26 51°13.42 2°47.702 -999 -999 -999 -999 -999
2007-04-17 09:49:31 51°13.419 2°47.712 -999 -999 -999 -999 -999
2007-04-17 09:49:36 51°13.418 2°47.723 -999 -999 -999 -999 -999
2007-04-17 09:49:41 51°13.417 2°47.734 -999 -999 -999 -999 -999
2007-04-17 09:49:46 51°13.417 2°47.747 -999 -999 -999 -999 -999
2007-04-17 09:49:51 51°13.417 2°47.762 -999 -999 -999 -999 -999
2007-04-17 09:49:56 51°13.418 2°47.777 -999 -999 -999 -999 -999
2007-04-17 09:50:01 51°13.421 2°47.793 -999 -999 -999 -999 -999
2007-04-17 09:50:06 51°13.424 2°47.81 -999 -999 -999 -999 -999
2007-04-17 09:50:11 51°13.426 2°47.829 -999 -999 -999 -999 -999
2007-04-17 09:50:16 51°13.429 2°47.847 -999 -999 -999 -999 -999
2007-04-17 09:50:21 51°13.433 2°47.867 -999 -999 -999 -999 -999
2007-04-17 09:50:26 51°13.436 2°47.888 -999 -999 -999 -999 -999
2007-04-17 09:50:31 51°13.438 2°47.909 -999 -999 -999 -999 -999
2007-04-17 09:50:36 51°13.441 2°47.93 -999 -999 -999 -999 -999
2007-04-17 09:50:41 51°13.444 2°47.952 -999 -999 -999 -999 -999
2007-04-17 09:50:46 51°13.447 2°47.974 -999 -999 -999 -999 -999
2007-04-17 09:50:51 51°13.45 2°47.995 -999 -999 -999 -999 -999
2007-04-17 09:50:56 51°13.452 2°48.014 -999 -999 -999 -999 -999
2007-04-17 09:51:01 51°13.454 2°48.033 -999 -999 -999 -999 -999
2007-04-17 09:51:06 51°13.456 2°48.05 -999 -999 -999 -999 -999
2007-04-17 09:51:11 51°13.457 2°48.065 -999 -999 -999 -999 -999
2007-04-17 09:51:16 51°13.457 2°48.08 -999 -999 -999 -999 -999
2007-04-17 09:51:21 51°13.456 2°48.093 -999 -999 -999 -999 -999
2007-04-17 09:51:26 51°13.455 2°48.106 -999 -999 -999 -999 -999
2007-04-17 09:51:31 51°13.453 2°48.117 -999 -999 -999 -999 -999
2007-04-17 09:51:36 51°13.451 2°48.128 -999 -999 -999 -999 -999
2007-04-17 09:51:41 51°13.448 2°48.138 -999 -999 -999 -999 -999
2007-04-17 09:51:46 51°13.446 2°48.147 -999 -999 -999 -999 -999
2007-04-17 09:51:51 51°13.443 2°48.154 -999 -999 -999 -999 -999
2007-04-17 09:51:56 51°13.44 2°48.161 -999 -999 -999 -999 -999
2007-04-17 09:52:01 51°13.438 2°48.166 -999 -999 -999 -999 -999
2007-04-17 09:52:06 51°13.435 2°48.17 -999 -999 -999 -999 -999
2007-04-17 09:52:11 51°13.433 2°48.173 -999 -999 -999 -999 -999
2007-04-17 09:52:16 51°13.431 2°48.175 -999 -999 -999 -999 -999
2007-04-17 09:52:21 51°13.429 2°48.177 -999 -999 -999 -999 -999
2007-04-17 09:52:26 51°13.427 2°48.177 -999 -999 -999 -999 -999
2007-04-17 09:52:31 51°13.426 2°48.177 -999 -999 -999 -999 -999
2007-04-17 09:52:36 51°13.425 2°48.177 -999 -999 -999 -999 -999
2007-04-17 09:52:41 51°13.424 2°48.176 -999 -999 -999 -999 -999
2007-04-17 09:52:46 51°13.423 2°48.175 -999 -999 -999 -999 -999
2007-04-17 09:52:51 51°13.422 2°48.175 -999 -999 -999 -999 -999
2007-04-17 09:52:56 51°13.421 2°48.174 -999 -999 -999 -999 -999
2007-04-17 09:53:01 51°13.42 2°48.173 -999 -999 -999 -999 -999
2007-04-17 09:53:06 51°13.419 2°48.172 -999 -999 -999 -999 -999
2007-04-17 09:53:11 51°13.417 2°48.172 -999 -999 -999 -999 -999
2007-04-17 09:53:16 51°13.416 2°48.171 -999 -999 -999 -999 -999
2007-04-17 09:53:21 51°13.415 2°48.17 -999 -999 -999 -999 -999
2007-04-17 09:53:26 51°13.414 2°48.17 -999 -999 -999 -999 -999
2007-04-17 09:53:31 51°13.413 2°48.169 -999 -999 -999 -999 -999
2007-04-17 09:53:36 51°13.412 2°48.168 -999 -999 -999 -999 -999
2007-04-17 09:53:41 51°13.41 2°48.167 -999 -999 -999 -999 -999
2007-04-17 09:53:46 51°13.409 2°48.166 -999 -999 -999 -999 -999
2007-04-17 09:53:51 51°13.408 2°48.165 -999 -999 -999 -999 -999
2007-04-17 09:53:56 51°13.407 2°48.164 -999 -999 -999 -999 -999
2007-04-17 09:54:01 51°13.405 2°48.163 -999 -999 -999 -999 -999
2007-04-17 09:54:06 51°13.404 2°48.162 -999 -999 -999 -999 -999
2007-04-17 09:54:11 51°13.403 2°48.162 -999 -999 -999 -999 -999
2007-04-17 09:54:16 51°13.401 2°48.161 -999 -999 -999 -999 -999
2007-04-17 09:54:21 51°13.4 2°48.16 -999 -999 -999 -999 -999
2007-04-17 09:54:26 51°13.399 2°48.159 -999 -999 -999 -999 -999
2007-04-17 09:54:31 51°13.398 2°48.158 -999 -999 -999 -999 -999
2007-04-17 09:54:37 51°13.396 2°48.157 -999 -999 -999 -999 -999
2007-04-17 09:54:41 51°13.395 2°48.157 -999 -999 -999 -999 -999
2007-04-17 09:54:46 51°13.393 2°48.156 -999 -999 -999 -999 -999
2007-04-17 09:54:51 51°13.392 2°48.155 -999 -999 -999 -999 -999
2007-04-17 09:54:56 51°13.391 2°48.154 -999 -999 -999 -999 -999
2007-04-17 09:55:01 51°13.389 2°48.153 -999 -999 -999 -999 -999
2007-04-17 09:55:06 51°13.388 2°48.153 -999 -999 -999 -999 -999
2007-04-17 09:55:11 51°13.386 2°48.152 -999 -999 -999 -999 -999
2007-04-17 09:55:16 51°13.385 2°48.152 -999 -999 -999 -999 -999
2007-04-17 09:55:21 51°13.383 2°48.151 -999 -999 -999 -999 -999
2007-04-17 09:55:26 51°13.382 2°48.15 -999 -999 -999 -999 -999
2007-04-17 09:55:31 51°13.38 2°48.149 -999 -999 -999 -999 -999
2007-04-17 09:55:36 51°13.379 2°48.149 -999 -999 -999 -999 -999
2007-04-17 09:55:41 51°13.378 2°48.148 -999 -999 -999 -999 -999
2007-04-17 09:55:46 51°13.376 2°48.147 -999 -999 -999 -999 -999
2007-04-17 09:55:51 51°13.375 2°48.147 -999 -999 -999 -999 -999
2007-04-17 09:55:56 51°13.373 2°48.146 -999 -999 -999 -999 -999
2007-04-17 09:56:01 51°13.372 2°48.146 -999 -999 -999 -999 -999
2007-04-17 09:56:06 51°13.37 2°48.146 -999 -999 -999 -999 -999
2007-04-17 09:56:11 51°13.369 2°48.145 -999 -999 -999 -999 -999
2007-04-17 09:56:16 51°13.367 2°48.145 -999 -999 -999 -999 -999
2007-04-17 09:56:21 51°13.366 2°48.144 -999 -999 -999 -999 -999
2007-04-17 09:56:26 51°13.365 2°48.144 -999 -999 -999 -999 -999
2007-04-17 09:56:31 51°13.363 2°48.144 -999 -999 -999 -999 -999
2007-04-17 09:56:36 51°13.362 2°48.143 -999 -999 -999 -999 -999
2007-04-17 09:56:41 51°13.36 2°48.143 -999 -999 -999 -999 -999
2007-04-17 09:56:46 51°13.359 2°48.143 -999 -999 -999 -999 -999
2007-04-17 09:56:51 51°13.357 2°48.144 -999 -999 -999 -999 -999
2007-04-17 09:56:56 51°13.355 2°48.145 -999 -999 -999 -999 -999
2007-04-17 09:57:01 51°13.353 2°48.146 -999 -999 -999 -999 -999
2007-04-17 09:57:06 51°13.35 2°48.148 -999 -999 -999 -999 -999
2007-04-17 09:57:11 51°13.348 2°48.151 -999 -999 -999 -999 -999
2007-04-17 09:57:16 51°13.345 2°48.154 -999 -999 -999 -999 -999
2007-04-17 09:57:21 51°13.344 2°48.157 -999 -999 -999 -999 -999
2007-04-17 09:57:26 51°13.342 2°48.161 -999 -999 -999 -999 -999
2007-04-17 09:57:31 51°13.34 2°48.165 -999 -999 -999 -999 -999
2007-04-17 09:57:36 51°13.338 2°48.17 -999 -999 -999 -999 -999
2007-04-17 09:57:41 51°13.337 2°48.175 -999 -999 -999 -999 -999
2007-04-17 09:57:46 51°13.336 2°48.18 -999 -999 -999 -999 -999
2007-04-17 09:57:51 51°13.335 2°48.186 -999 -999 -999 -999 -999
2007-04-17 09:57:56 51°13.335 2°48.192 -999 -999 -999 -999 -999
2007-04-17 09:58:01 51°13.335 2°48.198 -999 -999 -999 -999 -999
2007-04-17 09:58:06 51°13.335 2°48.204 -999 -999 -999 -999 -999
2007-04-17 09:58:11 51°13.336 2°48.21 -999 -999 -999 -999 -999
2007-04-17 09:58:16 51°13.338 2°48.217 -999 -999 -999 -999 -999
2007-04-17 09:58:21 51°13.339 2°48.223 -999 -999 -999 -999 -999
2007-04-17 09:58:26 51°13.341 2°48.23 -999 -999 -999 -999 -999
2007-04-17 09:58:31 51°13.344 2°48.238 -999 -999 -999 -999 -999
2007-04-17 09:58:36 51°13.346 2°48.246 -999 -999 -999 -999 -999
2007-04-17 09:58:41 51°13.35 2°48.257 -999 -999 -999 -999 -999
2007-04-17 09:58:46 51°13.354 2°48.268 -999 -999 -999 -999 -999
2007-04-17 09:58:51 51°13.358 2°48.281 -999 -999 -999 -999 -999
2007-04-17 09:58:56 51°13.363 2°48.296 -999 -999 -999 -999 -999
2007-04-17 09:59:01 51°13.368 2°48.311 -999 -999 -999 -999 -999
2007-04-17 09:59:06 51°13.374 2°48.328 -999 -999 -999 -999 -999
2007-04-17 09:59:11 51°13.38 2°48.346 -999 -999 -999 -999 -999
2007-04-17 09:59:16 51°13.386 2°48.366 -999 -999 -999 -999 -999
2007-04-17 09:59:21 51°13.393 2°48.386 -999 -999 -999 -999 -999
2007-04-17 09:59:26 51°13.401 2°48.408 -999 -999 -999 -999 -999
2007-04-17 09:59:31 51°13.408 2°48.429 -999 -999 -999 -999 -999
2007-04-17 09:59:36 51°13.417 2°48.451 -999 -999 -999 -999 -999
2007-04-17 09:59:41 51°13.426 2°48.473 -999 -999 -999 -999 -999
2007-04-17 09:59:46 51°13.435 2°48.495 -999 -999 -999 -999 -999
2007-04-17 09:59:51 51°13.444 2°48.517 -999 -999 -999 -999 -999
2007-04-17 09:59:56 51°13.453 2°48.539 -999 -999 -999 -999 -999
2007-04-17 10:00:01 51°13.464 2°48.561 -999 -999 -999 -999 -999
2007-04-17 10:00:06 51°13.473 2°48.583 -999 -999 -999 -999 -999
2007-04-17 10:00:11 51°13.483 2°48.605 -999 -999 -999 -999 -999
2007-04-17 10:00:16 51°13.493 2°48.628 -999 -999 -999 -999 -999
2007-04-17 10:00:21 51°13.503 2°48.65 -999 -999 -999 -999 -999
2007-04-17 10:00:26 51°13.513 2°48.673 -999 -999 -999 -999 -999
2007-04-17 10:00:31 51°13.523 2°48.696 -999 -999 -999 -999 -999
2007-04-17 10:00:36 51°13.532 2°48.718 -999 -999 -999 -999 -999
2007-04-17 10:00:41 51°13.542 2°48.741 -999 -999 -999 -999 -999
2007-04-17 10:00:46 51°13.552 2°48.763 -999 -999 -999 -999 -999
2007-04-17 10:00:51 51°13.563 2°48.786 -999 -999 -999 -999 -999
2007-04-17 10:00:56 51°13.573 2°48.809 -999 -999 -999 -999 -999
2007-04-17 10:01:01 51°13.583 2°48.831 -999 -999 -999 -999 -999
2007-04-17 10:01:06 51°13.593 2°48.854 -999 -999 -999 -999 -999
2007-04-17 10:01:11 51°13.603 2°48.877 -999 -999 -999 -999 -999
2007-04-17 10:01:17 51°13.615 2°48.904 -999 -999 -999 -999 -999
2007-04-17 10:01:21 51°13.623 2°48.922 -999 -999 -999 -999 -999
2007-04-17 10:01:26 51°13.633 2°48.945 -999 -999 -999 -999 -999
2007-04-17 10:01:31 51°13.643 2°48.968 -999 -999 -999 -999 -999
2007-04-17 10:01:36 51°13.653 2°48.99 -999 -999 -999 -999 -999
2007-04-17 10:01:41 51°13.663 2°49.013 -999 -999 -999 -999 -999
2007-04-17 10:01:46 51°13.673 2°49.035 -999 -999 -999 -999 -999
2007-04-17 10:01:51 51°13.682 2°49.059 -999 -999 -999 -999 -999
2007-04-17 10:01:56 51°13.692 2°49.081 -999 -999 -999 -999 -999
2007-04-17 10:02:01 51°13.702 2°49.105 -999 -999 -999 -999 -999
2007-04-17 10:02:06 51°13.712 2°49.128 -999 -999 -999 -999 -999
2007-04-17 10:02:11 51°13.722 2°49.151 -999 -999 -999 -999 -999
2007-04-17 10:02:16 51°13.732 2°49.174 -999 -999 -999 -999 -999
2007-04-17 10:02:21 51°13.741 2°49.197 -999 -999 -999 -999 -999
2007-04-17 10:02:26 51°13.751 2°49.22 -999 -999 -999 -999 -999
2007-04-17 10:02:31 51°13.762 2°49.243 -999 -999 -999 -999 -999
2007-04-17 10:02:36 51°13.772 2°49.266 -999 -999 -999 -999 -999
2007-04-17 10:02:41 51°13.782 2°49.289 -999 -999 -999 -999 -999
2007-04-17 10:02:46 51°13.792 2°49.312 -999 -999 -999 -999 -999
2007-04-17 10:02:51 51°13.802 2°49.335 -999 -999 -999 -999 -999
2007-04-17 10:02:56 51°13.812 2°49.358 -999 -999 -999 -999 -999
2007-04-17 10:03:01 51°13.822 2°49.381 -999 -999 -999 -999 -999
2007-04-17 10:03:06 51°13.832 2°49.404 -999 -999 -999 -999 -999
2007-04-17 10:03:11 51°13.842 2°49.427 -999 -999 -999 -999 -999
2007-04-17 10:03:17 51°13.854 2°49.454 -999 -999 -999 -999 -999
2007-04-17 10:03:21 51°13.862 2°49.472 -999 -999 -999 -999 -999
2007-04-17 10:03:26 51°13.872 2°49.495 -999 -999 -999 -999 -999
2007-04-17 10:03:31 51°13.882 2°49.518 -999 -999 -999 -999 -999
2007-04-17 10:03:36 51°13.892 2°49.541 -999 -999 -999 -999 -999
2007-04-17 10:03:41 51°13.902 2°49.563 -999 -999 -999 -999 -999
2007-04-17 10:03:46 51°13.912 2°49.586 -999 -999 -999 -999 -999
2007-04-17 10:03:51 51°13.922 2°49.608 -999 -999 -999 -999 -999
2007-04-17 10:03:56 51°13.932 2°49.631 -999 -999 -999 -999 -999
2007-04-17 10:04:01 51°13.942 2°49.653 -999 -999 -999 -999 -999
2007-04-17 10:04:06 51°13.951 2°49.676 -999 -999 -999 -999 -999
2007-04-17 10:04:11 51°13.961 2°49.699 -999 -999 -999 -999 -999
2007-04-17 10:04:16 51°13.971 2°49.722 -999 -999 -999 -999 -999
2007-04-17 10:04:21 51°13.981 2°49.744 -999 -999 -999 -999 -999
2007-04-17 10:04:26 51°13.991 2°49.767 -999 -999 -999 -999 -999
2007-04-17 10:04:31 51°14 2°49.789 -999 -999 -999 -999 -999
2007-04-17 10:04:36 51°14.01 2°49.812 -999 -999 -999 -999 -999
2007-04-17 10:04:41 51°14.02 2°49.835 -999 -999 -999 -999 -999
2007-04-17 10:04:46 51°14.03 2°49.858 -999 -999 -999 -999 -999
2007-04-17 10:04:51 51°14.039 2°49.881 -999 -999 -999 -999 -999
2007-04-17 10:04:56 51°14.049 2°49.904 -999 -999 -999 -999 -999
2007-04-17 10:05:01 51°14.059 2°49.927 -999 -999 -999 -999 -999
2007-04-17 10:05:06 51°14.069 2°49.949 -999 -999 -999 -999 -999
2007-04-17 10:05:11 51°14.079 2°49.973 -999 -999 -999 -999 -999
2007-04-17 10:05:16 51°14.089 2°49.995 -999 -999 -999 -999 -999
2007-04-17 10:05:21 51°14.099 2°50.019 -999 -999 -999 -999 -999
2007-04-17 10:05:26 51°14.109 2°50.041 -999 -999 -999 -999 -999
2007-04-17 10:05:31 51°14.119 2°50.065 -999 -999 -999 -999 -999
2007-04-17 10:05:36 51°14.129 2°50.088 -999 -999 -999 -999 -999
2007-04-17 10:05:41 51°14.139 2°50.111 -999 -999 -999 -999 -999
2007-04-17 10:05:46 51°14.149 2°50.134 -999 -999 -999 -999 -999
2007-04-17 10:05:51 51°14.158 2°50.157 -999 -999 -999 -999 -999
2007-04-17 10:05:56 51°14.168 2°50.18 -999 -999 -999 -999 -999
2007-04-17 10:06:01 51°14.178 2°50.203 -999 -999 -999 -999 -999
2007-04-17 10:06:06 51°14.188 2°50.227 -999 -999 -999 -999 -999
2007-04-17 10:06:11 51°14.198 2°50.25 -999 -999 -999 -999 -999
2007-04-17 10:06:16 51°14.208 2°50.273 -999 -999 -999 -999 -999
2007-04-17 10:06:21 51°14.218 2°50.296 -999 -999 -999 -999 -999
2007-04-17 10:06:26 51°14.228 2°50.32 -999 -999 -999 -999 -999
2007-04-17 10:06:31 51°14.238 2°50.343 -999 -999 -999 -999 -999
2007-04-17 10:06:36 51°14.248 2°50.366 -999 -999 -999 -999 -999
2007-04-17 10:06:41 51°14.258 2°50.389 -999 -999 -999 -999 -999
2007-04-17 10:06:46 51°14.268 2°50.412 -999 -999 -999 -999 -999
2007-04-17 10:06:51 51°14.278 2°50.435 -999 -999 -999 -999 -999
2007-04-17 10:06:56 51°14.288 2°50.458 -999 -999 -999 -999 -999
2007-04-17 10:07:01 51°14.297 2°50.482 -999 -999 -999 -999 -999
2007-04-17 10:07:06 51°14.307 2°50.505 -999 -999 -999 -999 -999
2007-04-17 10:07:11 51°14.316 2°50.526 -999 -999 -999 -999 -999
2007-04-17 10:07:16 51°14.325 2°50.546 -999 -999 -999 -999 -999
2007-04-17 10:07:21 51°14.333 2°50.565 -999 -999 -999 -999 -999
2007-04-17 10:07:26 51°14.34 2°50.583 -999 -999 -999 -999 -999